This is the latest recevied weather packets stored in our database for station/object N2XP-3. If no packets are shown the sender has not sent any weather packets the latest 10 day(s).
| Time | Temp. | Humidity | Pressure | Rain* | Wind** | Luminosity | Snow |
|---|---|---|---|---|---|---|---|
| 1777790924 | 6.67° C | 65% | 1008 hPa | 0 mm | 1.79 m/s, 120° | - | - |
| 1777790536 | 6.67° C | 65% | 1007.9 hPa | 0 mm | 0.45 m/s, 134° | - | - |
| 1777790325 | 6.67° C | 65% | 1007.9 hPa | 0 mm | 0.45 m/s, 134° | - | - |
| 1777790016 | 6.67° C | 65% | 1008 hPa | 0 mm | 1.79 m/s, 148° | - | - |
| 1777789868 | 6.11° C | 65% | 1008 hPa | 0 mm | 1.79 m/s, 97° | - | - |
| 1777789717 | 6.11° C | 65% | 1008 hPa | 0 mm | 1.79 m/s, 97° | - | - |
| 1777789620 | 6.67° C | 64% | 1008 hPa | 0 mm | 1.34 m/s, 118° | - | - |
| 1777789418 | 6.67° C | 64% | 1008 hPa | 0 mm | 1.34 m/s, 118° | - | - |
| 1777789213 | 6.67° C | 64% | 1008.2 hPa | 0 mm | 0 m/s | - | - |
| 1777789106 | 6.67° C | 64% | 1008.2 hPa | 0 mm | 0 m/s | - | - |
| 1777789030 | 6.67° C | 63% | 1008.2 hPa | 0 mm | 0.89 m/s, 51° | - | - |
| 1777788807 | 6.67° C | 63% | 1008.2 hPa | 0 mm | 0.89 m/s, 51° | - | - |
| 1777788507 | 6.67° C | 63% | 1008.3 hPa | 0 mm | 0.89 m/s, 173° | - | - |
| 1777788379 | 6.67° C | 63% | 1008.3 hPa | 0 mm | 0.45 m/s, 15° | - | - |
| 1777788201 | 6.67° C | 63% | 1008.3 hPa | 0 mm | 0.45 m/s, 15° | - | - |
| 1777787949 | 6.67° C | 62% | 1008.3 hPa | 0 mm | 0.45 m/s, 162° | - | - |
| 1777787901 | 6.67° C | 62% | 1008.3 hPa | 0 mm | 0.45 m/s, 162° | - | - |
| 1777787597 | 7.22° C | 62% | 1008.3 hPa | 0 mm | 1.34 m/s, 148° | - | - |
| 1777787291 | 7.22° C | 62% | 1008.4 hPa | 0 mm | 0.89 m/s, 172° | - | - |
| 1777787035 | 7.22° C | 62% | 1008.3 hPa | 0 mm | 0.89 m/s, 229° | - | - |
| 1777786992 | 7.22° C | 62% | 1008.3 hPa | 0 mm | 0.89 m/s, 229° | - | - |
| 1777786693 | 7.22° C | 61% | 1008.4 hPa | 0 mm | 0.89 m/s, 174° | - | - |
| 1777786388 | 7.22° C | 61% | 1008.4 hPa | 0 mm | 1.34 m/s, 89° | - | - |
| 1777786085 | 7.22° C | 60% | 1008.5 hPa | 0 mm | 0.89 m/s, 188° | - | - |
| 1777785785 | 7.78° C | 60% | 1008.6 hPa | 0 mm | 1.79 m/s, 166° | - | - |
* Rain latest hour (hover to see other rain measurements)
** Current wind speed in m/s (hover to see current wind gust speed)